Weather History for Chillicothe, MO

Change the Weather History Date:

Friday, December 14, 2012

  Actual Average (KIRK) Record (KIRK)
Temperature  
Mean Temperature 40 °F 29 °F  
Max Temperature 53 °F 37 °F 64 °F (1975)
Min Temperature 28 °F 21 °F -5 °F (1989)
Degree Days  
Heating Degree Days 24 36  
Month to date heating degree days 478  
Since 1 July heating degree days 1699  
Cooling Degree Days 0 0  
Month to date cooling degree days 0  
Year to date cooling degree days 939  
Moisture  
Dew Point 28 °F    
Average Humidity 59    
Maximum Humidity 85    
Minimum Humidity 41    
Precipitation  
Precipitation 0.13 in 0.06 in 2.01 in (1975)
Month to date precipitation 0.89  
Year to date precipitation 38.45  
Sea Level Pressure  
Sea Level Pressure 30.03 in    
Wind  
Wind Speed 5 mph (SSE)    
Max Wind Speed 16 mph    
Max Gust Speed 28 mph    
T = Trace of Precipitation, MM = Missing Value Source: NWS Daily Summary

Daily Weather History Graph

Daily Weather History Graph

Search for Another Location

Airport:

Trip Planner

Search our weather history database for the weather conditions in past years. The results will help you decide how hot, cold, wet, or windy it might be!

Date:

Astronomy

Dec. 14, 2012 Rise Set
Actual Time 7:28 AM CST 4:50 PM CST
Civil Twilight 6:57 AM CST 5:20 PM CST
Nautical Twilight 6:23 AM CST 5:54 PM CST
Astronomical Twilight 5:50 AM CST 6:27 PM CST
Moon 8:33 AM CST (12/14) 6:43 PM CST (12/14)
Length of Visible Light 10h 23m
Length of Day
9h 22m
Waxing Crescent, 3% of the Moon is Illuminated
Dec 14
Waxing Crescent
Dec 19
First Quarter
Dec 28
Full
Jan 4
Last Quarter
Jan 11
New

Hourly Weather History & Observations

Time (CST) Temp. Windchill Dew Point Humidity Pressure Visibility Wind Dir Wind Speed Gust Speed Precip Events Conditions
12:52 AM 28.0 °F - 21.9 °F 78% 30.15 in - Calm Calm - N/A   Unknown
1:52 AM 28.0 °F - 24.1 °F 85% 30.14 in - Calm Calm - N/A   Unknown
2:52 AM 32.0 °F 27.5 °F 25.0 °F 75% 30.14 in - South 4.6 mph - N/A   Unknown
3:52 AM 35.1 °F 30.1 °F 24.1 °F 64% 30.13 in - South 5.8 mph - N/A   Unknown
4:52 AM 35.1 °F 31.0 °F 24.1 °F 64% 30.13 in - South 4.6 mph - N/A   Unknown
5:52 AM 30.0 °F - 24.1 °F 79% 30.14 in - Calm Calm - N/A   Unknown
6:52 AM 28.9 °F - 24.1 °F 82% 30.15 in - Calm Calm - N/A   Unknown
7:52 AM 30.0 °F 25.2 °F 24.1 °F 79% 30.16 in - SSE 4.6 mph - N/A   Unknown
8:52 AM 37.9 °F 33.5 °F 26.1 °F 62% 30.13 in - SSE 5.8 mph - N/A   Unknown
9:52 AM 42.1 °F 37.7 °F 28.0 °F 58% 30.12 in - SSE 6.9 mph - N/A   Unknown
10:52 AM 48.9 °F - 27.0 °F 43% 30.10 in - South 13.8 mph - N/A   Unknown
11:52 AM 50.0 °F - 28.0 °F 43% 30.07 in - South 11.5 mph - N/A   Unknown
12:52 PM 52.0 °F - 30.0 °F 43% 30.04 in - South 10.4 mph - N/A   Unknown
1:52 PM 52.0 °F - 30.0 °F 43% 30.00 in - South 8.1 mph - N/A   Unknown
2:52 PM 53.1 °F - 30.0 °F 41% 29.97 in - SSE 9.2 mph - N/A   Unknown
3:52 PM 52.0 °F - 28.9 °F 41% 29.95 in - SSE 9.2 mph - N/A   Unknown
4:52 PM 52.0 °F - 30.0 °F 43% 29.95 in - SSE 8.1 mph - N/A   Unknown
5:52 PM 51.1 °F - 30.0 °F 44% 29.95 in - SE 6.9 mph - N/A   Unknown
6:52 PM 51.1 °F - 30.9 °F 46% 29.94 in - SE 6.9 mph - N/A   Unknown
7:52 PM 50.0 °F - 32.0 °F 50% 29.93 in - SE 5.8 mph - N/A   Unknown
8:52 PM 46.9 °F - 32.0 °F 56% 29.89 in - SE 10.4 mph 18.4 mph 0.09 in   Unknown
9:52 PM 46.9 °F - 32.0 °F 56% 29.86 in - SE 9.2 mph - N/A   Unknown
10:52 PM 46.9 °F - 37.0 °F 68% 29.82 in - SE 10.4 mph - N/A   Unknown
11:52 PM 45.0 °F 37.9 °F 39.9 °F 82% 29.79 in - SSE 16.1 mph 27.6 mph 0.04 in   Unknown